SCP
0 0 0 0 0 0 0 0 0 0 0 0 0 0 0 0 0 0 0 0 0 0 0 0 0 0 0 0 0 0 0 0
0 0 0 0 0 0 0 0 0 0 0 0 0 0 0 0 0 0 0 0 0 0 0 0 0 0 0 0 0 0 0 0
0 0 0 0 0 0 0 0 0 0 0 0 0 0 0 0 0 0 0 0 0 0 0 0 0 0 0 0 0 0 0 0
0 0 0 0 0 0 0 0 0 0 0 0 0 0 0 0 0 0 0 0 0 0 0 0 0 0 0 0 0 0 0 0
0 0 0 0 0 0 0 0 0 0 0 0 0 0 0 0 0 0 0 0 0 0 0 0 0 0 0 0 0 0 0 0
0 0 0 0 0 0 0 0 0 0 0 0 0 0 0 0 0 0 0 0 0 0 0 0 0 0 0 0 0 0 0 0
0 0 0 0 0 -0 -0 -0 0 0 0 0 0 0 0 0 0 0 0 0 0 0 0 0 0 0 0 0 0 0 0 0
0 0 0 -0 -0 -0 -0 0 0 0 0 0 0 0 0 0 0 0 0 0 0 0 0 0 0 0 0 0 0 0 0 0
0 0 -0 -0 -0 0 0 0 0 0 0 0 0 0 0 0 0 0 0 0 0 0 0 0 0 0 0 0 0 0 0 0
0 0 0 0 0 0 0 0 0 0 0 0 0 0 0 0 0 0 0 0 0 0 0 0 0 0 0 0 0 0 0 0
0 0 0 0 0 0 0 0 0 0 0 0 0 0 0 0 0 0 0 0 0 0 0 0 0 0 0 0 0 0 0 0
0 0 0 0 0 0 0 0 0 0 0 0 0 0 0 0 0 0 0 0 0 0 0 0 0 0 0 0 0 0 0 0
0 0 0 0 0 0 0 0 0 0 0 0 0 0 0 0 0 0 0 0 0 0 0 0 0 0 0 0 0 0 0 0
0 0 0 0 0 0 0 0 0 0 0 0 0 0 0 0 0 0 0 0 0 0 0 0 0 0 0 0 0 0 0 0
0 0 0 0 0 0 0 0 0 0 0 0 0 0 0 0 0 0 0 0 0 0 0 0 0 0 0 0 0 0 0 0
0 0 0 0 0 0 0 0 0 0 0 0 0 0 0 0 0 0 0 0 0 0 0 0 0 0 0 0 0 0 0 0
0 0 0 0 0 0 0 0 0 0 0 0 0 0 0 0 0 0 0 0 0 0 0 0 0 0 0 0 0 0 0 0
0 0 0 0 0 0 0 0 0 0 0 0 0 0 0 0 0 0 0 0 0 0 0 0 0 0 0 0 0 0 0 0
0 0 0 0 0 0 0 0 0 0 0 0 0 0 0 0 0 0 0 0 0 0 0 0 0 0 0 0 0 0 0 0
0 0 0 0 0 0 0 0 0 0 0 0 0 0 0 0 0 0 0 0 0 0 0 0 0 0 0 0 0 0 0 0
Wind_Speed_500mb
80 83 82 80 75 67 66 62 58 56 55 54 46 40 41 40 28 16 2 24 40 20 12 9 12 14 17 18 18 19 19 18
75 76 75 72 62 54 42 49 50 55 54 50 51 54 40 29 9 29 36 23 21 15 12 14 15 16 18 19 20 19 19 20
66 65 63 61 62 58 56 55 55 54 47 43 51 46 24 27 33 30 19 21 17 17 19 20 19 19 21 24 24 22 21 22
58 54 49 41 42 43 39 46 51 48 45 49 39 28 23 27 27 23 21 19 20 23 24 24 24 25 26 27 28 27 26 26
45 41 34 32 36 39 47 44 45 51 45 36 28 21 25 26 25 22 20 23 26 27 28 29 30 31 32 32 31 32 30 32
35 34 31 33 39 44 44 44 47 45 40 33 25 27 27 27 23 22 26 29 30 31 34 35 36 36 37 36 38 38 39 38
32 35 40 43 42 48 50 51 45 39 36 33 31 27 26 27 26 28 30 31 36 38 39 40 40 41 42 43 45 46 46 44
35 43 45 47 45 49 45 41 37 34 33 34 33 30 29 32 33 32 33 38 42 42 44 43 43 46 47 49 52 51 50 51
39 42 42 42 40 41 38 33 32 36 36 35 33 32 36 39 37 37 40 43 45 47 47 46 46 50 53 55 57 58 56 55
33 37 37 36 34 33 33 33 33 30 32 33 36 39 43 44 40 42 45 46 49 48 49 51 49 54 56 59 63 62 61 59
28 28 31 32 33 33 35 35 33 33 35 38 43 46 48 45 44 45 49 51 51 52 52 54 55 56 61 63 67 68 67 65
23 25 27 29 32 34 32 34 35 35 38 41 45 47 45 45 47 48 51 53 55 57 55 57 61 61 65 67 72 72 71 69
15 17 17 18 20 24 28 29 30 32 36 39 40 40 42 46 48 50 53 57 58 61 63 62 65 65 66 68 69 72 75 72
10 8 8 10 12 13 18 21 23 25 28 31 35 39 42 46 47 51 53 60 63 67 73 71 67 67 68 68 67 68 74 77
18 13 9 5 4 7 11 15 19 22 26 30 34 38 42 46 50 54 58 64 69 74 80 79 77 74 71 69 68 69 72 71
12 11 10 10 12 15 19 23 26 30 32 36 40 44 48 53 57 62 65 69 74 78 81 82 85 77 75 73 71 69 66 67
13 12 11 12 15 20 23 25 28 30 34 38 43 45 50 55 58 59 66 68 72 75 79 82 82 78 72 70 72 70 64 71
15 16 18 21 25 29 33 37 41 43 44 46 49 52 54 56 60 66 57 65 66 67 69 72 77 76 77 71 64 59 50 65
24 27 31 33 37 39 41 42 42 42 42 41 42 44 46 50 53 58 63 66 63 61 66 69 68 66 66 63 61 62 58 72
33 37 39 40 39 37 34 33 32 32 33 36 39 43 48 53 57 62 66 71 76 74 68 63 65 67 66 58 67 79 77 74
Wind_Direction_500mb
183 184 184 189 195 189 195 195 197 200 212 198 191 173 168 157 159 182 289 288 283 258 247 278 297 313 312 316 324 329 329 327
183 183 180 179 186 194 195 199 203 198 189 181 173 156 154 167 183 254 260 260 248 248 259 271 285 297 299 305 312 311 311 311
182 181 180 180 183 189 192 196 195 188 178 165 152 142 160 237 256 249 235 244 246 256 257 262 275 284 292 296 299 297 295 293
178 181 182 187 188 188 180 176 169 160 152 147 154 189 220 237 235 231 239 246 252 256 258 265 275 281 287 289 287 283 285 286
169 175 177 185 187 167 158 156 156 151 158 171 181 221 229 239 230 239 255 256 257 260 263 269 276 281 283 278 278 278 281 282
172 175 172 169 166 166 165 164 161 165 171 184 229 235 229 226 245 257 256 256 260 264 268 272 276 280 279 278 279 279 278 279
171 164 167 169 166 164 165 169 175 180 195 227 244 237 226 247 255 257 260 264 266 268 271 273 277 280 281 281 277 276 276 278
176 174 173 173 167 169 173 182 194 212 240 245 240 227 246 257 259 264 268 268 269 272 273 275 279 282 284 281 278 274 276 276
180 179 175 172 174 183 195 209 235 250 248 237 230 245 257 264 267 270 271 272 273 274 276 279 283 282 282 281 280 278 277 275
176 177 182 187 195 209 226 247 255 246 235 237 250 262 270 272 273 273 274 277 278 278 278 281 282 282 284 284 282 279 277 276
181 188 204 210 222 240 254 258 266 259 255 260 265 271 277 277 274 275 278 278 278 278 279 281 284 285 286 284 280 279 279 277
191 207 218 230 246 254 256 262 273 265 261 264 273 279 277 274 275 279 279 279 277 278 281 284 286 286 285 282 280 282 280 277
185 208 228 245 256 261 266 269 267 264 267 272 274 274 275 275 276 277 278 280 281 283 283 285 287 287 285 284 282 283 279 278
131 163 201 232 249 259 260 269 276 278 275 273 272 274 277 279 281 282 283 283 284 285 287 287 288 287 285 283 282 279 274 279
94 93 83 60 358 321 297 289 288 289 289 290 290 289 287 285 283 282 281 284 287 288 288 290 289 288 288 287 283 279 275 269
56 38 22 354 319 304 301 301 298 296 296 293 289 285 283 283 284 285 286 287 289 289 291 291 291 293 289 286 282 280 276 268
33 17 3 342 329 322 315 310 304 301 297 292 289 288 289 289 289 289 292 292 293 293 293 293 292 291 289 285 283 281 274 258
22 2 347 330 319 314 310 307 304 302 300 300 300 300 300 301 301 301 300 300 300 299 299 297 296 294 293 289 285 280 255 251
341 333 326 319 314 312 309 308 307 308 311 313 314 314 314 313 310 308 308 308 307 305 303 300 297 290 283 272 273 265 255 248
326 321 317 315 313 313 315 314 316 318 318 318 318 318 317 316 315 313 311 311 310 311 308 306 297 291 284 270 258 263 263 254
Wind_Speed_850mb
80 83 82 80 75 67 66 62 58 56 55 54 46 40 41 40 28 16 2 24 40 20 12 9 12 14 17 18 18 19 19 18
75 76 75 72 62 54 42 49 50 55 54 50 51 54 40 29 9 29 36 23 21 15 12 14 15 16 18 19 20 19 19 20
66 65 63 61 62 58 56 55 55 54 47 43 51 46 24 27 33 30 19 21 17 17 19 20 19 19 21 24 24 22 21 22
58 54 49 41 42 43 39 46 51 48 45 49 39 28 23 27 27 23 21 19 20 23 24 24 24 25 26 27 28 27 26 26
45 41 34 32 36 39 47 44 45 51 45 36 28 21 25 26 25 22 20 23 26 27 28 29 30 31 32 32 31 32 30 32
35 34 31 33 39 44 44 44 47 45 40 33 25 27 27 27 23 22 26 29 30 31 34 35 36 36 37 36 38 38 39 38
32 35 40 43 42 48 50 51 45 39 36 33 31 27 26 27 26 28 30 31 36 38 39 40 40 41 42 43 45 46 46 44
35 43 45 47 45 49 45 41 37 34 33 34 33 30 29 32 33 32 33 38 42 42 44 43 43 46 47 49 52 51 50 51
39 42 42 42 40 41 38 33 32 36 36 35 33 32 36 39 37 37 40 43 45 47 47 46 46 50 53 55 57 58 56 55
33 37 37 36 34 33 33 33 33 30 32 33 36 39 43 44 40 42 45 46 49 48 49 51 49 54 56 59 63 62 61 59
28 28 31 32 33 33 35 35 33 33 35 38 43 46 48 45 44 45 49 51 51 52 52 54 55 56 61 63 67 68 67 65
23 25 27 29 32 34 32 34 35 35 38 41 45 47 45 45 47 48 51 53 55 57 55 57 61 61 65 67 72 72 71 69
15 17 17 18 20 24 28 29 30 32 36 39 40 40 42 46 48 50 53 57 58 61 63 62 65 65 66 68 69 72 75 72
10 8 8 10 12 13 18 21 23 25 28 31 35 39 42 46 47 51 53 60 63 67 73 71 67 67 68 68 67 68 74 77
18 13 9 5 4 7 11 15 19 22 26 30 34 38 42 46 50 54 58 64 69 74 80 79 77 74 71 69 68 69 72 71
12 11 10 10 12 15 19 23 26 30 32 36 40 44 48 53 57 62 65 69 74 78 81 82 85 77 75 73 71 69 66 67
13 12 11 12 15 20 23 25 28 30 34 38 43 45 50 55 58 59 66 68 72 75 79 82 82 78 72 70 72 70 64 71
15 16 18 21 25 29 33 37 41 43 44 46 49 52 54 56 60 66 57 65 66 67 69 72 77 76 77 71 64 59 50 65
24 27 31 33 37 39 41 42 42 42 42 41 42 44 46 50 53 58 63 66 63 61 66 69 68 66 66 63 61 62 58 72
33 37 39 40 39 37 34 33 32 32 33 36 39 43 48 53 57 62 66 71 76 74 68 63 65 67 66 58 67 79 77 74
Wind_Direction_850mb
183 184 184 189 195 189 195 195 197 200 212 198 191 173 168 157 159 182 289 288 283 258 247 278 297 313 312 316 324 329 329 327
183 183 180 179 186 194 195 199 203 198 189 181 173 156 154 167 183 254 260 260 248 248 259 271 285 297 299 305 312 311 311 311
182 181 180 180 183 189 192 196 195 188 178 165 152 142 160 237 256 249 235 244 246 256 257 262 275 284 292 296 299 297 295 293
178 181 182 187 188 188 180 176 169 160 152 147 154 189 220 237 235 231 239 246 252 256 258 265 275 281 287 289 287 283 285 286
169 175 177 185 187 167 158 156 156 151 158 171 181 221 229 239 230 239 255 256 257 260 263 269 276 281 283 278 278 278 281 282
172 175 172 169 166 166 165 164 161 165 171 184 229 235 229 226 245 257 256 256 260 264 268 272 276 280 279 278 279 279 278 279
171 164 167 169 166 164 165 169 175 180 195 227 244 237 226 247 255 257 260 264 266 268 271 273 277 280 281 281 277 276 276 278
176 174 173 173 167 169 173 182 194 212 240 245 240 227 246 257 259 264 268 268 269 272 273 275 279 282 284 281 278 274 276 276
180 179 175 172 174 183 195 209 235 250 248 237 230 245 257 264 267 270 271 272 273 274 276 279 283 282 282 281 280 278 277 275
176 177 182 187 195 209 226 247 255 246 235 237 250 262 270 272 273 273 274 277 278 278 278 281 282 282 284 284 282 279 277 276
181 188 204 210 222 240 254 258 266 259 255 260 265 271 277 277 274 275 278 278 278 278 279 281 284 285 286 284 280 279 279 277
191 207 218 230 246 254 256 262 273 265 261 264 273 279 277 274 275 279 279 279 277 278 281 284 286 286 285 282 280 282 280 277
185 208 228 245 256 261 266 269 267 264 267 272 274 274 275 275 276 277 278 280 281 283 283 285 287 287 285 284 282 283 279 278
131 163 201 232 249 259 260 269 276 278 275 273 272 274 277 279 281 282 283 283 284 285 287 287 288 287 285 283 282 279 274 279
94 93 83 60 358 321 297 289 288 289 289 290 290 289 287 285 283 282 281 284 287 288 288 290 289 288 288 287 283 279 275 269
56 38 22 354 319 304 301 301 298 296 296 293 289 285 283 283 284 285 286 287 289 289 291 291 291 293 289 286 282 280 276 268
33 17 3 342 329 322 315 310 304 301 297 292 289 288 289 289 289 289 292 292 293 293 293 293 292 291 289 285 283 281 274 258
22 2 347 330 319 314 310 307 304 302 300 300 300 300 300 301 301 301 300 300 300 299 299 297 296 294 293 289 285 280 255 251
341 333 326 319 314 312 309 308 307 308 311 313 314 314 314 313 310 308 308 308 307 305 303 300 297 290 283 272 273 265 255 248
326 321 317 315 313 313 315 314 316 318 318 318 318 318 317 316 315 313 311 311 310 311 308 306 297 291 284 270 258 263 263 254